Location: Indian Hills
(32.9760°N, 85.9450°W)
Time: 01:27:42
(UTC+00:00)

Cosmos 614 Rocket - Pass Details

Date: 09 December 2019
Orbit: 733 x 763 km, 74.1° (Epoch: 19 January)

Event Time Altitude Azimuth Distance (km) Brightness Sun altitude
Exits shadow 10:21:47 44° 18° (NNE) 1,019 4.6 -27.2°
Maximum altitude 10:23:08 59° 72° (ENE) 851 4.4 -26.9°
Drops below altitude 10° 10:28:09 10° 151° (SSE) 2,249 6.9 -25.9°
Sets 10:30:32 0° 155° (SSE) 3,174 7.7 -25.4°
